ORBCOMM FM115 [+]

Last updated on Fri Dec 29 2023 00:02:54 GMT+0000 (Coordinated Universal Time)

1 41186U 15081H 23362.13564863 .00001287 00000+0 29978-3 0 9992 2 41186 46.9998 69.0239 0000590 223.6197 136.4643 14.60217544429220
UTC large
Height (km)
Speed (km/s)
/
Latitude / Longitude
Inclination (degrees)
Orbital Period (minutes)
Azimuth
Elevation
Range (km)
Doppler Factor

Next 0 passes for location: London (51.5072 / 0.1276)

Sorry there are no passes over London.
ORBCOMM FM115 [+]